When you browse on this site, cookies collect data to enhance your experience and personalize the content and advertising you see.
Visit our Privacy Policy to learn more. By continuing to use the site, you agree to this use of cookies and data.
  • In Lithuania
  • List of Countries
  • For 7 days
  • Water Temperature
  • Weather Map
  • Weather Widgets
  • user-avatar
    Login

    Hourly Weather Kaprun

    Today, 16 October, Wednesday

    Time Temperature Precipitation Wind Pressure Humidity
    00:00 +6°C° 2.6 mm 1 mps 595 mmHg 95%
    01:00 +5°C° 0 mm 2 mps 595 mmHg 98%
    02:00 +4°C° 2.7 mm 2 mps 595 mmHg 98%
    03:00 +3°C° 2.7 mm 1 mps 594 mmHg 98%
    04:00 +2°C° 2.7 mm 1 mps 594 mmHg 98%
    05:00 +2°C° 0.2 mm 1 mps 594 mmHg 97%
    06:00 +2°C° 0.2 mm 1 mps 595 mmHg 97%
    07:00 +2°C° 0.2 mm 1 mps 595 mmHg 96%
    08:00 +3°C° 0 mm 1 mps 596 mmHg 92%
    09:00 +4°C° 0 mm 1 mps 596 mmHg 88%
    10:00 +4°C° 0 mm 0 mps 597 mmHg 84%
    11:00 +6°C° 0 mm 1 mps 597 mmHg 78%
    12:00 +7°C° 0 mm 1 mps 597 mmHg 72%
    13:00 +8°C° 0 mm 1 mps 598 mmHg 66%
    14:00 +8°C° 0 mm 1 mps 598 mmHg 68%
    15:00 +8°C° 0 mm 1 mps 598 mmHg 69%
    16:00 +8°C° 0 mm 1 mps 597 mmHg 71%
    17:00 +6°C° 0 mm 1 mps 597 mmHg 77%
    18:00 +4°C° 0 mm 2 mps 597 mmHg 83%
    19:00 +2°C° 0 mm 2 mps 596 mmHg 90%
    20:00 +2°C° 0 mm 2 mps 596 mmHg 90%
    21:00 +2°C° 0 mm 2 mps 597 mmHg 91%
    22:00 +2°C° 0 mm 2 mps 597 mmHg 91%
    23:00 +2°C° 0 mm 2 mps 597 mmHg 91%

    Tomorrow, 17 October, Thursday

    Time Temperature Precipitation Wind Pressure Humidity
    00:00 +2°C° 0 mm 2 mps 597 mmHg 91%
    01:00 +2°C° 0 mm 2 mps 597 mmHg 90%
    02:00 +1°C° 0 mm 2 mps 596 mmHg 90%
    03:00 +1°C° 0 mm 2 mps 596 mmHg 90%
    04:00 +1°C° 0 mm 2 mps 596 mmHg 89%
    05:00 +1°C° 0 mm 2 mps 596 mmHg 88%
    06:00 +2°C° 0 mm 1 mps 596 mmHg 87%
    07:00 +2°C° 0 mm 1 mps 596 mmHg 85%
    08:00 +4°C° 0 mm 1 mps 597 mmHg 78%
    09:00 +6°C° 0 mm 1 mps 598 mmHg 70%
    10:00 +8°C° 0 mm 0 mps 599 mmHg 62%
    11:00 +9°C° 0 mm 1 mps 599 mmHg 61%
    12:00 +10°C° 0 mm 1 mps 600 mmHg 59%
    13:00 +10°C° 0 mm 1 mps 600 mmHg 58%
    14:00 +10°C° 0 mm 1 mps 599 mmHg 62%
    15:00 +9°C° 0 mm 1 mps 599 mmHg 66%
    16:00 +9°C° 0 mm 1 mps 599 mmHg 70%
    17:00 +7°C° 0 mm 1 mps 598 mmHg 78%
    18:00 +5°C° 0 mm 1 mps 597 mmHg 85%
    19:00 +3°C° 0 mm 1 mps 596 mmHg 92%
    20:00 +3°C° 0 mm 1 mps 596 mmHg 91%
    21:00 +3°C° 0 mm 1 mps 597 mmHg 90%
    22:00 +3°C° 0 mm 1 mps 597 mmHg 89%
    23:00 +3°C° 0 mm 1 mps 597 mmHg 88%

    Day after tomorrow, 18 October, Friday

    Time Temperature Precipitation Wind Pressure Humidity
    00:00 +3°C° 0 mm 1 mps 597 mmHg 87%
    01:00 +3°C° 0 mm 1 mps 597 mmHg 86%
    02:00 +3°C° 0 mm 1 mps 597 mmHg 85%
    03:00 +3°C° 0 mm 1 mps 596 mmHg 85%
    04:00 +3°C° 0 mm 1 mps 596 mmHg 84%
    05:00 +3°C° 0 mm 1 mps 596 mmHg 84%
    06:00 +2°C° 0 mm 0 mps 596 mmHg 85%
    07:00 +2°C° 0 mm 0 mps 596 mmHg 85%
    08:00 +5°C° 0 mm 1 mps 597 mmHg 78%
    09:00 +7°C° 0 mm 1 mps 598 mmHg 72%
    10:00 +9°C° 0 mm 1 mps 599 mmHg 65%
    11:00 +9°C° 0 mm 1 mps 599 mmHg 64%
    12:00 +9°C° 0 mm 1 mps 599 mmHg 64%
    13:00 +9°C° 0 mm 2 mps 599 mmHg 63%
    14:00 +9°C° 0 mm 1 mps 598 mmHg 68%
    15:00 +8°C° 0 mm 1 mps 598 mmHg 73%
    16:00 +8°C° 0 mm 1 mps 597 mmHg 78%
    17:00 +7°C° 0 mm 1 mps 597 mmHg 83%
    18:00 +6°C° 0 mm 1 mps 597 mmHg 88%
    19:00 +4°C° 0 mm 0 mps 596 mmHg 93%
    20:00 +4°C° 0 mm 1 mps 596 mmHg 93%
    21:00 +4°C° 0 mm 1 mps 596 mmHg 92%
    22:00 +4°C° 0 mm 1 mps 596 mmHg 92%
    23:00 +4°C° 0 mm 1 mps 596 mmHg 92%

    19 October, Saturday

    Time Temperature Precipitation Wind Pressure Humidity
    00:00 +2°C° 0 mm 2 mps 596 mmHg 92%
    01:00 +2°C° 0 mm 2 mps 595 mmHg 92%
    02:00 +2°C° 0 mm 2 mps 595 mmHg 92%
    03:00 +2°C° 0 mm 2 mps 595 mmHg 91%
    04:00 +1°C° 0 mm 3 mps 595 mmHg 91%
    05:00 +1°C° 0 mm 3 mps 595 mmHg 91%
    06:00 +1°C° 0 mm 3 mps 595 mmHg 91%
    07:00 +1°C° 0 mm 3 mps 594 mmHg 90%
    08:00 +3°C° 0 mm 3 mps 595 mmHg 85%
    09:00 +4°C° 0 mm 3 mps 596 mmHg 80%
    10:00 +7°C° 0 mm 3 mps 596 mmHg 74%
    11:00 +7°C° 0 mm 3 mps 596 mmHg 71%
    12:00 +8°C° 0 mm 3 mps 596 mmHg 68%
    13:00 +9°C° 0 mm 3 mps 596 mmHg 65%
    14:00 +8°C° 0 mm 3 mps 596 mmHg 68%
    15:00 +7°C° 0 mm 4 mps 595 mmHg 71%
    16:00 +6°C° 0 mm 4 mps 595 mmHg 75%
    17:00 +5°C° 0 mm 4 mps 594 mmHg 78%
    18:00 +4°C° 0 mm 4 mps 594 mmHg 81%
    19:00 +3°C° 0 mm 4 mps 593 mmHg 84%
    20:00 +3°C° 0 mm 4 mps 593 mmHg 85%
    21:00 +3°C° 0 mm 4 mps 594 mmHg 85%
    22:00 +3°C° 0 mm 4 mps 594 mmHg 86%
    23:00 +3°C° 0 mm 4 mps 594 mmHg 86%

    20 October, Sunday

    Time Temperature Precipitation Wind Pressure Humidity
    00:00 +3°C° 0 mm 3 mps 594 mmHg 87%
    01:00 +3°C° 0 mm 3 mps 595 mmHg 88%
    02:00 +3°C° 0 mm 3 mps 595 mmHg 89%
    03:00 +4°C° 0 mm 2 mps 595 mmHg 89%
    04:00 +4°C° 0 mm 2 mps 595 mmHg 90%
    05:00 +4°C° 0 mm 2 mps 596 mmHg 91%
    06:00 +4°C° 0 mm 2 mps 596 mmHg 91%
    07:00 +3°C° 0 mm 2 mps 596 mmHg 92%
    08:00 +4°C° 0 mm 3 mps 597 mmHg 87%
    09:00 +5°C° 0 mm 3 mps 597 mmHg 81%
    10:00 +7°C° 0 mm 3 mps 598 mmHg 76%
    11:00 +8°C° 0 mm 3 mps 598 mmHg 73%
    12:00 +8°C° 0 mm 3 mps 598 mmHg 70%
    13:00 +9°C° 0 mm 3 mps 598 mmHg 67%
    14:00 +8°C° 0 mm 3 mps 598 mmHg 71%
    15:00 +8°C° 0 mm 3 mps 598 mmHg 74%
    16:00 +7°C° 0 mm 3 mps 597 mmHg 78%
    17:00 +7°C° 0 mm 3 mps 597 mmHg 81%
    18:00 +5°C° 0 mm 3 mps 597 mmHg 84%
    19:00 +4°C° 0 mm 3 mps 597 mmHg 87%
    20:00 +4°C° 0.1 mm 4 mps 597 mmHg 88%
    21:00 +4°C° 0.1 mm 4 mps 597 mmHg 88%
    22:00 +4°C° 0.1 mm 4 mps 597 mmHg 88%
    23:00 +4°C° 0 mm 4 mps 597 mmHg 89%

    21 October, Monday

    Time Temperature Precipitation Wind Pressure Humidity
    00:00 +4°C° 0 mm 4 mps 597 mmHg 89%
    01:00 +4°C° 0 mm 4 mps 597 mmHg 90%
    02:00 +4°C° 0 mm 4 mps 597 mmHg 89%
    03:00 +4°C° 0 mm 4 mps 597 mmHg 88%
    04:00 +4°C° 0 mm 4 mps 597 mmHg 88%
    05:00 +4°C° 0 mm 4 mps 597 mmHg 88%
    06:00 +5°C° 0 mm 4 mps 597 mmHg 88%
    07:00 +5°C° 0 mm 4 mps 598 mmHg 88%
    08:00 +6°C° 0 mm 4 mps 598 mmHg 85%
    09:00 +7°C° 0 mm 4 mps 599 mmHg 82%
    10:00 +8°C° 0 mm 4 mps 599 mmHg 79%
    11:00 +10°C° 0 mm 4 mps 600 mmHg 76%
    12:00 +10°C° 0 mm 4 mps 600 mmHg 73%
    13:00 +11°C° 0 mm 4 mps 600 mmHg 70%
    14:00 +11°C° 0 mm 4 mps 600 mmHg 73%
    15:00 +10°C° 0 mm 4 mps 599 mmHg 76%
    16:00 +8°C° 0 mm 4 mps 599 mmHg 80%
    17:00 +7°C° 0 mm 4 mps 599 mmHg 82%
    18:00 +7°C° 0 mm 4 mps 599 mmHg 84%
    19:00 +6°C° 0 mm 4 mps 598 mmHg 87%
    20:00 +6°C° 0 mm 4 mps 599 mmHg 87%
    21:00 +6°C° 0 mm 4 mps 599 mmHg 86%
    22:00 +6°C° 0 mm 4 mps 599 mmHg 86%
    23:00 +6°C° 0 mm 4 mps 599 mmHg 86%
    Show more